Starlink 1564

operational
NORAD ID: 46058 Int'l Des: 2020-055 Owner: SPXS Country: US Constellation: starlink
LEOCIRCULARSTARLINK_TYPE

Über Starlink 1564

Beschreibung wird geladen...

Live-Position

3D-Globus wird geladen...

Nächste Überflüge

Höhenverlauf

Altitude vs Time

uPlot chart will show altitude changes over time

Zweizeiliger Elementsatz

1 46058U 20055AH 25260.06318333 -.00000546 00000-0 -17753-4 0 9991
2 46058 53.0542 176.5201 0001440 87.9454 272.1700 15.06385371282855
Epoch: 17. Sept. 2025 • Age: 22 hours

Aktueller Status

Höhe 553.9 km
Geschwindigkeit 7.58 km/s
Subsatellitenpunkt -21.99°S, 162.34°E
Startdatum 7. Aug. 2020
Alter 5.1 years
Typ internet

Technische Details

Klassifizierung Payload
Masse 260.00 kg
Trockenmasse 248.00 kg
Gesamtmasse 260.00 kg
Länge 0.20 m
Durchmesser 2.80 m
Spannweite 9.00 m
Form Box + pan
Hersteller SPXS
Bus-Typ Starlink
Phasenstatus In Orbit
Besitzer/Staat SPXS/US

Große Konstellationen

Loading constellations...